Tracking 34138 objects as of 15-May-2026
HD Live streaming from Space Station
objects crossing your sky now

STARLINK-37053

Track STARLINK-37053 now!
10-day predictions
STARLINK-37053 is classified as:


NORAD ID: 68159
Int'l Code: 2026-049T
Perigee: 471.1 km
Apogee: 474.2 km
Inclination: 97.3 °
Period: 93.9 minutes
Semi major axis: 6843 km
RCS: Unknown
Launch date: March 13, 2026
Source: United States (US)
Launch site: AIR FORCE WESTERN TEST RANGE (AFWTR)
Your satellite tracking list
Your tracking list is empty




NASA's NSSDC Master Catalog

Two Line Element Set (TLE):
1 68159U 26049T   26135.02935955  .00014960  00000-0  46468-3 0  9996
2 68159  97.2859 156.8249 0002241 111.9735 248.1746 15.33452017  9813
Source of the keplerian elements: AFSPC